UAL429 KSAN-KLAX

Flight info

Callsign UAL429
Flight time 0h 24m
Altitude 10000
Route CWARD2 SLI
Aircraft B738/M-VGDW/C

Departure

Time 2026-05-04 02:54
Airport San Diego International Airport (KSAN)

Arrival

Time 2026-05-04 03:18
Airport Los Angeles International Airport (KLAX)
Time Latitude Longitude Altitude Speed Heading
2026-05-04 02:36 32.73338 -117.20183 21 ft 0 kts 84°
2026-05-04 02:43 32.73336 -117.20196 21 ft 3 kts 84°
2026-05-04 02:43 32.73334 -117.20224 21 ft 3 kts 84°
2026-05-04 02:43 32.73332 -117.20247 21 ft 0 kts 81°
2026-05-04 02:44 32.73331 -117.20251 21 ft 0 kts 66°
2026-05-04 02:44 32.73330 -117.20254 21 ft 0 kts 64°
2026-05-04 02:44 32.73328 -117.20258 21 ft 0 kts 52°
2026-05-04 02:44 32.73327 -117.20261 21 ft 0 kts 49°
2026-05-04 02:46 32.73328 -117.20261 21 ft 0 kts 37°
2026-05-04 02:46 32.73338 -117.20263 21 ft 4 kts 341°
2026-05-04 02:47 32.73378 -117.20275 21 ft 5 kts 353°
2026-05-04 02:47 32.73394 -117.20274 21 ft 0 kts
2026-05-04 02:48 32.73420 -117.20270 21 ft 5 kts 11°
2026-05-04 02:48 32.73449 -117.20262 21 ft 3 kts 15°
2026-05-04 02:49 32.73461 -117.20258 21 ft 0 kts 15°
2026-05-04 02:49 32.73473 -117.20254 21 ft 5 kts 15°
2026-05-04 02:49 32.73527 -117.20220 21 ft 11 kts 52°
2026-05-04 02:49 32.73529 -117.20108 21 ft 17 kts 103°
2026-05-04 02:50 32.73493 -117.19945 21 ft 23 kts 105°
2026-05-04 02:50 32.73438 -117.19731 22 ft 29 kts 109°
2026-05-04 02:50 32.73375 -117.19483 24 ft 33 kts 111°
2026-05-04 02:50 32.73311 -117.19196 24 ft 39 kts 105°
2026-05-04 02:51 32.73229 -117.18868 22 ft 42 kts 102°
2026-05-04 02:51 32.73150 -117.18531 21 ft 42 kts 110°
2026-05-04 02:51 32.73063 -117.18198 21 ft 40 kts 106°
2026-05-04 02:51 32.72994 -117.17911 23 ft 21 kts 109°
2026-05-04 02:52 32.72950 -117.17765 25 ft 4 kts 105°
2026-05-04 02:52 32.72947 -117.17750 25 ft 5 kts 102°
2026-05-04 02:52 32.72957 -117.17667 27 ft 16 kts 79°
2026-05-04 02:52 32.73017 -117.17600 28 ft 8 kts 321°
2026-05-04 02:53 32.73049 -117.17696 27 ft 17 kts 288°
2026-05-04 02:53 32.73117 -117.17987 24 ft 74 kts 285°
2026-05-04 02:53 32.73334 -117.18890 24 ft 151 kts 285°
2026-05-04 02:53 32.73665 -117.20248 449 ft 180 kts 286°
2026-05-04 02:54 32.74095 -117.21687 1288 ft 194 kts 295°
2026-05-04 02:54 32.74913 -117.22998 1998 ft 206 kts 309°
2026-05-04 02:54 32.75804 -117.24419 2402 ft 226 kts 303°
2026-05-04 02:54 32.76715 -117.26075 2810 ft 249 kts 302°
2026-05-04 02:55 32.78676 -117.29536 4562 ft 256 kts 302°
2026-05-04 02:55 32.79664 -117.31309 5444 ft 259 kts 301°
2026-05-04 02:55 32.80720 -117.33036 6298 ft 262 kts 305°
2026-05-04 02:56 32.81838 -117.34715 7140 ft 264 kts 305°
2026-05-04 02:56 32.82952 -117.36438 8007 ft 264 kts 303°
2026-05-04 02:56 32.84064 -117.38193 8690 ft 271 kts 303°
2026-05-04 02:56 32.85208 -117.39976 9346 ft 278 kts 303°
2026-05-04 02:57 32.86396 -117.41793 9921 ft 284 kts 302°
2026-05-04 02:57 32.87618 -117.43668 9949 ft 287 kts 303°
2026-05-04 02:57 32.88848 -117.45575 9949 ft 293 kts 303°
2026-05-04 02:57 32.90121 -117.47593 9971 ft 317 kts 303°
2026-05-04 02:58 32.91490 -117.49751 9945 ft 341 kts 304°
2026-05-04 02:58 32.92936 -117.51978 9935 ft 339 kts 304°
2026-05-04 02:58 32.94390 -117.54190 9933 ft 337 kts 304°
2026-05-04 02:58 32.95821 -117.56402 9934 ft 339 kts 303°
2026-05-04 02:59 32.97248 -117.58657 9937 ft 340 kts 302°
2026-05-04 02:59 32.98654 -117.60881 9933 ft 337 kts 303°
2026-05-04 02:59 33.00087 -117.63117 9935 ft 336 kts 303°
2026-05-04 02:59 33.01512 -117.65331 9933 ft 339 kts 303°
2026-05-04 03:00 33.02957 -117.67564 9932 ft 338 kts 303°
2026-05-04 03:00 33.04384 -117.69775 9936 ft 337 kts 303°
2026-05-04 03:00 33.05792 -117.71983 9927 ft 338 kts 304°
2026-05-04 03:00 33.07412 -117.74051 9930 ft 344 kts 314°
2026-05-04 03:01 33.09256 -117.75891 9935 ft 343 kts 316°
2026-05-04 03:01 33.11087 -117.77699 9929 ft 344 kts 316°
2026-05-04 03:01 33.12916 -117.79570 9933 ft 344 kts 315°
2026-05-04 03:01 33.14731 -117.81453 9933 ft 344 kts 315°
2026-05-04 03:02 33.16547 -117.83311 9927 ft 344 kts 316°
2026-05-04 03:02 33.18387 -117.85105 9931 ft 345 kts 320°
2026-05-04 03:02 33.20510 -117.86449 9941 ft 352 kts 338°
2026-05-04 03:02 33.22937 -117.87118 9942 ft 359 kts 346°
2026-05-04 03:03 33.25397 -117.87653 9946 ft 357 kts 346°
2026-05-04 03:03 33.27815 -117.88254 9946 ft 357 kts 343°
2026-05-04 03:03 33.30239 -117.88900 9939 ft 355 kts 343°
2026-05-04 03:03 33.32671 -117.89522 9940 ft 355 kts 344°
2026-05-04 03:04 33.35099 -117.90101 9937 ft 347 kts 345°
2026-05-04 03:04 33.37378 -117.90646 9934 ft 328 kts 344°
2026-05-04 03:04 33.39560 -117.91246 9937 ft 308 kts 340°
2026-05-04 03:04 33.41543 -117.91992 9948 ft 296 kts 337°
2026-05-04 03:05 33.43497 -117.92762 9932 ft 296 kts 338°
2026-05-04 03:05 33.45482 -117.93497 9804 ft 299 kts 339°
2026-05-04 03:05 33.47483 -117.94204 9566 ft 300 kts 339°
2026-05-04 03:05 33.49461 -117.94909 9332 ft 297 kts 339°
2026-05-04 03:06 33.51412 -117.95637 9091 ft 293 kts 338°
2026-05-04 03:06 33.53365 -117.96375 8846 ft 291 kts 339°
2026-05-04 03:06 33.55299 -117.97084 8600 ft 290 kts 340°
2026-05-04 03:06 33.57229 -117.97767 8351 ft 289 kts 340°
2026-05-04 03:07 33.59158 -117.98453 8055 ft 290 kts 340°
2026-05-04 03:07 33.61062 -117.99160 7759 ft 286 kts 339°
2026-05-04 03:07 33.62969 -117.99876 7457 ft 283 kts 341°
2026-05-04 03:07 33.64834 -118.00551 7169 ft 282 kts 340°
2026-05-04 03:08 33.66729 -118.01225 6976 ft 278 kts 341°
2026-05-04 03:08 33.68589 -118.01888 6968 ft 280 kts 341°
2026-05-04 03:08 33.70448 -118.02575 6964 ft 279 kts 341°
2026-05-04 03:08 33.72310 -118.03273 6958 ft 277 kts 341°
2026-05-04 03:09 33.74102 -118.03928 6951 ft 258 kts 341°
2026-05-04 03:09 33.75760 -118.04524 6973 ft 243 kts 340°
2026-05-04 03:09 33.77365 -118.05119 6964 ft 238 kts 341°
2026-05-04 03:09 33.78979 -118.05568 6955 ft 240 kts 357°
2026-05-04 03:10 33.80608 -118.05173 6959 ft 245 kts 26°
2026-05-04 03:10 33.82099 -118.04090 6961 ft 248 kts 32°
2026-05-04 03:10 33.83527 -118.03007 6968 ft 245 kts 31°
2026-05-04 03:10 33.84997 -118.01918 6939 ft 251 kts 31°
2026-05-04 03:11 33.86492 -118.00819 6705 ft 249 kts 29°
2026-05-04 03:11 33.88098 -118.00145 6442 ft 246 kts
2026-05-04 03:11 33.89782 -118.00276 6211 ft 240 kts 350°
2026-05-04 03:11 33.91429 -118.00572 5967 ft 238 kts 351°
2026-05-04 03:12 33.93056 -118.00908 5704 ft 235 kts 340°
2026-05-04 03:12 33.94461 -118.01867 5446 ft 231 kts 313°
2026-05-04 03:12 33.95307 -118.03444 5213 ft 224 kts 291°
2026-05-04 03:12 33.95885 -118.05194 5002 ft 224 kts 288°
2026-05-04 03:13 33.96361 -118.06942 4975 ft 221 kts 283°
2026-05-04 03:13 33.96520 -118.08798 4888 ft 224 kts 265°
2026-05-04 03:13 33.96423 -118.10662 4661 ft 227 kts 266°
2026-05-04 03:13 33.96320 -118.12547 4362 ft 225 kts 262°
2026-05-04 03:14 33.96129 -118.14417 4042 ft 225 kts 262°
2026-05-04 03:14 33.95954 -118.16280 3759 ft 224 kts 262°
2026-05-04 03:14 33.95768 -118.18134 3470 ft 219 kts 262°
2026-05-04 03:14 33.95585 -118.19916 3149 ft 213 kts 263°
2026-05-04 03:15 33.95417 -118.21669 2831 ft 209 kts 262°
2026-05-04 03:15 33.95237 -118.23383 2549 ft 206 kts 262°
2026-05-04 03:15 33.95075 -118.25061 2268 ft 195 kts 262°
2026-05-04 03:15 33.94910 -118.26639 2012 ft 184 kts 262°
2026-05-04 03:16 33.94769 -118.28133 1778 ft 176 kts 262°
2026-05-04 03:16 33.94618 -118.29530 1546 ft 160 kts 263°
2026-05-04 03:16 33.94500 -118.30775 1370 ft 144 kts 262°
2026-05-04 03:16 33.94376 -118.31947 1170 ft 137 kts 263°
2026-05-04 03:17 33.94262 -118.33107 963 ft 141 kts 262°
2026-05-04 03:17 33.94143 -118.34262 780 ft 135 kts 263°
2026-05-04 03:17 33.94027 -118.35375 619 ft 137 kts 263°
2026-05-04 03:17 33.93912 -118.36563 437 ft 146 kts 262°
2026-05-04 03:18 33.93782 -118.37795 237 ft 150 kts 263°
2026-05-04 03:18 33.93665 -118.38999 107 ft 137 kts 261°
2026-05-04 03:18 33.93541 -118.39946 116 ft 79 kts 269°
2026-05-04 03:18 33.93614 -118.40347 121 ft 36 kts 284°
2026-05-04 03:19 33.93608 -118.40635 126 ft 27 kts 265°
2026-05-04 03:19 33.93604 -118.40683 126 ft 0 kts 265°
2026-05-04 03:19 33.93602 -118.40710 126 ft 6 kts 264°
2026-05-04 03:19 33.93596 -118.40788 126 ft 10 kts 276°
2026-05-04 03:20 33.93633 -118.40881 127 ft 14 kts 321°
2026-05-04 03:20 33.93728 -118.40915 127 ft 2 kts 349°
2026-05-04 03:20 33.93730 -118.40916 127 ft 1 kts 349°
2026-05-04 03:20 33.93761 -118.40923 127 ft 3 kts 349°
2026-05-04 03:21 33.93840 -118.40919 127 ft 13 kts 30°
2026-05-04 03:21 33.93877 -118.40839 127 ft 9 kts 77°
2026-05-04 03:21 33.93882 -118.40768 127 ft 9 kts 86°
2026-05-04 03:21 33.93895 -118.40667 126 ft 15 kts 82°
2026-05-04 03:22 33.93909 -118.40506 124 ft 22 kts 85°
2026-05-04 03:22 33.93934 -118.40318 121 ft 22 kts 87°
2026-05-04 03:22 33.93944 -118.40128 120 ft 23 kts 84°
2026-05-04 03:22 33.93964 -118.39957 117 ft 12 kts 82°
2026-05-04 03:23 33.93997 -118.39857 115 ft 13 kts 34°
2026-05-04 03:23 33.94067 -118.39838 114 ft 7 kts 316°
2026-05-04 03:23 33.94086 -118.39874 115 ft 4 kts 309°
2026-05-04 03:23 33.94100 -118.39895 115 ft 0 kts 308°
2026-05-04 03:24 33.94109 -118.39909 116 ft 1 kts 307°